Everett, WA

6:05 PM PST on November 16, 2019 (GMT -0800)
Snohomish County

Weather History for KPAE - August, 2019

Change the Weather History Date:

Wednesday, August 21, 2019

  Actual Average Record
Temperature  
Mean Temperature 62 °F -  
Max Temperature 68 °F 73 °F 84 °F (2018)
Min Temperature 57 °F 53 °F 41 °F (1973)
Degree Days  
Heating Degree Days 4    
Growing Degree Days 12 (Base 50)    
Moisture  
Dew Point 56 °F    
Average Humidity 84    
Maximum Humidity 97    
Minimum Humidity 68    
Precipitation  
Precipitation 0.13 in - - ()
Sea Level Pressure  
Sea Level Pressure 30.00 in    
Wind  
Wind Speed 10 mph (SE)    
Max Wind Speed 17 mph    
Max Gust Speed 25 mph    
Visibility 8 miles    
Events Fog , Rain    
Averages and records for this station are not official NWS values.
T = Trace of Precipitation, MM = Missing Value Source: NWS Daily Summary

Daily Weather History Graph

Daily Weather History Graph

Search for Another Location

Airport or City:

Astronomy

Aug. 21, 2019 Rise Set
Actual Time 6:12 AM PDT 8:11 PM PDT
Civil Twilight 5:38 AM PDT 8:44 PM PDT
Nautical Twilight 4:57 AM PDT 9:25 PM PDT
Astronomical Twilight 4:11 AM PDT 10:11 PM PDT
Moon 11:05 PM PDT (8/21) 12:18 PM PDT (8/21)
Length of Visible Light 15h 05m
Length of Day
13h 59m
Waning Gibbous, 68% of the Moon is Illuminated
Aug 21
Waning Gibbous
Aug 23
Last Quarter
Aug 30
New
Sep 5
First Quarter
Sep 13
Full

Hourly Weather History & Observations

Time (PDT) Temp. Dew Point Humidity Pressure Visibility Wind Dir Wind Speed Gust Speed Precip Events Conditions
12:53 AM 64.0 °F 54.0 °F 70% 29.99 in 10.0 mi South 10.4 mph - N/A   Clear
1:53 AM 63.0 °F 53.1 °F 70% 30.00 in 10.0 mi SSE 10.4 mph - N/A   Clear
2:53 AM 63.0 °F 54.0 °F 72% 29.99 in 10.0 mi SSE 12.7 mph - N/A   Mostly Cloudy
3:53 AM 62.1 °F 55.0 °F 78% 29.98 in 10.0 mi SE 11.5 mph 17.3 mph N/A   Overcast
4:53 AM 62.1 °F 55.0 °F 78% 29.98 in 10.0 mi SSE 11.5 mph - N/A   Overcast
5:53 AM 63.0 °F 55.0 °F 75% 29.97 in 10.0 mi SSE 11.5 mph 18.4 mph N/A   Overcast
6:53 AM 61.0 °F 55.9 °F 83% 29.99 in 10.0 mi SSE 16.1 mph 24.2 mph 0.00 in   Overcast
7:53 AM 60.1 °F 57.0 °F 90% 29.99 in 10.0 mi SSE 15.0 mph - 0.03 in Rain Light Rain
8:35 AM 60.1 °F 57.9 °F 93% 30.00 in 2.0 mi South 16.1 mph - 0.02 in Rain Light Rain
8:43 AM 60.1 °F 57.9 °F 93% 30.00 in 2.0 mi South 16.1 mph - 0.03 in Rain Light Rain
8:53 AM 60.1 °F 57.9 °F 93% 30.00 in 2.0 mi South 13.8 mph 24.2 mph 0.03 in Rain Light Rain
9:07 AM 61.0 °F 57.9 °F 90% 30.00 in 3.0 mi SSE 17.3 mph 25.3 mph 0.01 in Rain Light Rain
9:53 AM 61.0 °F 57.9 °F 90% 29.99 in 3.0 mi SE 8.1 mph - 0.03 in Rain Rain
10:53 AM 62.1 °F 59.0 °F 90% 29.99 in 10.0 mi SE 8.1 mph - 0.04 in   Overcast
11:53 AM 66.0 °F 59.0 °F 78% 29.99 in 10.0 mi South 11.5 mph - 0.00 in   Overcast
12:53 PM 66.0 °F 55.9 °F 70% 29.99 in 10.0 mi SSE 9.2 mph - 0.00 in   Overcast
1:45 PM 66.9 °F 57.0 °F 70% 29.99 in 10.0 mi South 10.4 mph - N/A   Overcast
1:53 PM 66.9 °F 55.9 °F 68% 29.99 in 10.0 mi SSE 9.2 mph - N/A   Overcast
2:53 PM 64.9 °F 57.0 °F 75% 29.98 in 10.0 mi South 8.1 mph - N/A   Overcast
3:53 PM 64.9 °F 57.9 °F 78% 29.97 in 10.0 mi WSW 6.9 mph - N/A   Overcast
4:53 PM 64.0 °F 59.0 °F 84% 29.98 in 10.0 mi SW 4.6 mph - N/A   Overcast
5:41 PM 64.0 °F 59.0 °F 84% 29.98 in 10.0 mi West 6.9 mph - N/A   Overcast
5:53 PM 64.0 °F 59.0 °F 84% 29.98 in 10.0 mi WSW 6.9 mph - N/A   Overcast
6:02 PM 63.0 °F 59.0 °F 87% 29.99 in 10.0 mi West 5.8 mph - N/A   Overcast
6:19 PM 62.1 °F 59.0 °F 90% 29.99 in 1.8 mi NNW 5.8 mph - 0.00 in Rain Light Rain
6:24 PM 62.1 °F 60.1 °F 93% 29.99 in 2.0 mi Variable 3.5 mph - 0.00 in Rain Light Rain
6:36 PM 61.0 °F 60.1 °F 97% 29.99 in 0.8 mi North 5.8 mph - 0.00 in Rain Light Rain
6:46 PM 61.0 °F 60.1 °F 97% 29.99 in 0.1 mi Variable 5.8 mph - 0.00 in Fog , Rain Light Rain
6:53 PM 60.1 °F 59.0 °F 96% 29.99 in 0.2 mi North 6.9 mph - 0.00 in Fog , Rain Light Rain
7:10 PM 59.0 °F 57.9 °F 96% 30.00 in 7.0 mi NNW 6.9 mph - 0.00 in   Overcast
7:17 PM 59.0 °F 57.9 °F 96% 30.00 in 9.0 mi North 5.8 mph - 0.00 in   Overcast
7:53 PM 57.9 °F 55.9 °F 93% 30.00 in 10.0 mi NNE 6.9 mph - 0.00 in   Overcast
8:00 PM 57.9 °F 55.0 °F 90% 30.00 in 10.0 mi NNE 5.8 mph - N/A   Overcast
8:18 PM 57.9 °F 55.0 °F 90% 30.01 in 10.0 mi North 5.8 mph - N/A   Overcast
8:34 PM 57.9 °F 53.1 °F 84% 30.02 in 10.0 mi North 5.8 mph - N/A   Overcast
8:53 PM 57.9 °F 53.1 °F 84% 30.02 in 10.0 mi NNE 6.9 mph - N/A   Overcast
9:00 PM 57.9 °F 53.1 °F 84% 30.02 in 10.0 mi NNE 8.1 mph - N/A   Overcast
9:31 PM 57.9 °F 52.0 °F 81% 30.01 in 10.0 mi NNE 8.1 mph - N/A   Overcast
9:53 PM 57.9 °F 53.1 °F 84% 30.01 in 10.0 mi North 9.2 mph - N/A   Overcast
10:09 PM 57.9 °F 52.0 °F 81% 30.01 in 10.0 mi North 9.2 mph - N/A   Overcast
10:19 PM 57.9 °F 52.0 °F 81% 30.01 in 10.0 mi NNE 9.2 mph - N/A   Overcast
10:53 PM 57.0 °F 52.0 °F 83% 30.01 in 10.0 mi North 10.4 mph - N/A   Overcast
11:53 PM 57.0 °F 51.1 °F 81% 30.01 in 10.0 mi North 6.9 mph - N/A   Overcast